Probability
0 0 0 0 0 0 0 0 0 0 0 0 0 0 0 0 0 0 0 0 0 0 0 0 0 0 0 0 0 0 0 0 0 0 0 0 0 0 0 0 0 0 0 0
0 0 0 0 0 0 0 0 0 0 0 0 0 0 0 0 0 0 0 0 0 0 0 0 0 0 0 0 0 0 0 0 0 0 0 0 0 0 0 0 0 0 0 0
0 0 0 0 0 0 0 0 0 0 0 0 0 0 0 0 0 0 0 0 0 0 0 0 0 0 0 0 0 0 0 0 0 0 0 0 0 0 0 0 0 0 0 0
0 0 0 0 0 0 0 0 0 0 0 0 0 0 0 0 0 0 0 0 0 0 0 0 0 0 0 0 0 0 0 0 0 0 0 0 0 0 0 0 0 0 0 0
0 0 0 0 0 0 0 0 0 0 0 0 0 0 0 0 0 0 0 0 0 0 0 0 0 0 0 0 0 0 0 0 0 0 0 0 0 0 0 0 0 0 0 0
0 0 0 0 0 0 0 0 0 0 0 0 0 0 0 0 0 0 0 0 0 0 0 0 0 0 0 0 0 0 0 0 0 0 0 0 0 0 0 0 0 0 0 0
0 0 0 0 0 0 0 0 0 0 0 0 0 0 0 0 0 0 0 0 0 0 0 0 0 0 0 0 0 0 0 0 0 0 0 0 0 0 0 0 0 0 0 0
0 0 0 0 0 0 0 0 0 0 0 0 0 0 0 0 0 0 0 0 0 0 0 0 0 0 0 0 0 0 0 0 0 0 0 0 0 0 0 0 0 0 0 0
0 0 0 0 0 0 0 0 0 0 0 0 0 0 0 0 0 0 0 0 0 0 0 0 0 0 0 0 0 0 0 0 0 0 0 0 0 0 0 0 0 0 0 0
0 0 0 0 0 0 0 0 0 0 0 0 0 0 0 0 0 0 0 0 0 0 0 0 0 0 0 0 0 0 0 0 0 0 0 0 0 0 0 0 0 0 0 0
0 0 0 0 0 0 0 0 0 0 0 0 0 0 0 0 0 0 0 0 0 0 0 0 0 0 0 0 0 0 0 0 0 0 0 0 0 0 0 0 0 0 0 0
0 0 0 0 0 0 0 0 0 0 0 0 0 0 0 0 0 0 0 0 0 0 0 0 0 0 0 0 0 0 0 0 0 0 0 0 0 0 0 0 0 0 0 0
0 0 0 0 0 0 0 0 0 0 0 0 0 0 0 0 0 0 0 0 0 0 0 0 0 0 0 0 0 0 0 0 0 0 0 0 0 0 0 0 0 0 0 0
0 0 0 0 0 0 0 0 0 0 0 0 0 0 0 0 0 0 0 0 0 0 0 0 0 0 0 0 0 0 0 0 0 0 0 0 0 0 0 0 0 0 0 0
0 0 0 0 0 0 0 0 0 0 0 0 0 0 0 0 0 0 0 0 0 0 0 0 0 0 0 0 0 0 0 0 0 0 0 0 0 0 0 0 0 0 0 0
0 0 0 0 0 0 0 0 0 0 0 0 0 0 0 0 0 0 0 0 0 0 0 0 0 0 0 0 0 0 0 0 0 0 0 0 0 0 0 0 0 0 0 0
0 0 0 0 0 0 0 0 0 0 0 0 0 0 0 0 0 0 0 0 0 0 0 0 0 0 0 0 0 0 0 0 0 0 0 0 0 0 0 0 0 0 0 0
0 0 0 0 0 0 0 0 0 0 0 0 0 0 0 0 0 0 0 0 0 0 0 0 0 0 0 0 0 0 0 0 0 0 0 0 0 0 0 0 0 0 0 0
0 0 0 0 0 0 0 0 0 0 0 0 0 0 0 0 0 0 0 0 0 0 0 0 0 0 0 0 0 0 0 0 0 0 0 0 0 0 0 0 0 0 0 0
0 0 0 0 0 0 0 0 0 0 0 0 0 0 0 0 0 0 0 0 0 0 0 0 0 0 0 0 0 0 0 0 0 0 0 0 0 0 0 0 0 0 0 0
0 0 0 0 0 0 0 0 0 0 0 0 0 0 0 0 0 0 0 0 0 0 0 0 0 0 0 0 0 0 0 0 0 0 0 0 0 0 0 0 0 0 0 0
0 0 0 0 0 0 0 0 0 0 0 0 0 0 0 0 0 0 0 0 0 0 0 0 0 0 0 0 0 0 0 0 0 0 0 0 0 0 0 0 0 0 0 0
0 0 0 0 0 0 0 0 0 0 0 0 0 0 0 0 0 0 0 0 0 0 0 0 0 0 0 0 0 0 0 0 0 0 0 0 0 0 0 0 0 0 0 0
0 0 0 0 0 0 0 0 0 0 0 0 0 0 0 0 0 0 0 0 0 0 0 0 0 0 0 0 0 0 0 0 0 0 0 0 0 0 0 0 0 0 0 0
0 0 0 0 0 0 0 0 0 0 0 0 0 0 0 0 0 0 0 0 0 0 0 0 0 0 0 0 0 0 0 0 0 0 0 0 0 0 0 0 0 0 0 0
0 0 0 0 0 0 0 0 0 0 0 0 0 0 0 0 0 0 0 0 0 0 0 0 0 0 0 0 0 0 0 0 0 0 0 0 0 0 0 0 0 0 0 0
Wind_Speed
1 6 7 7 6 8 8 11 15 14 3 7 16 23 27 23 17 19 19 19 19 20 18 15 16 18 18 19 19 20 20 21 18 15 15 14 14 13 12 12 15 16 15 16
5 8 6 2 2 5 7 11 14 10 1 7 15 24 24 18 13 13 15 15 15 15 14 13 14 16 19 20 21 21 22 21 21 16 15 12 13 12 13 12 15 17 17 17
9 3 2 3 4 6 8 9 10 9 7 6 10 14 10 7 4 7 8 9 10 10 11 10 13 15 17 19 21 19 22 21 21 19 13 11 10 9 12 15 14 17 19 19
7 3 3 5 6 6 8 4 7 7 8 6 5 10 11 8 9 9 11 10 10 7 6 7 9 13 16 17 16 18 19 20 19 19 18 19 16 17 17 14 13 16 19 20
4 2 4 5 4 5 4 2 3 4 6 8 4 7 10 6 8 14 14 14 13 11 8 6 7 10 13 14 15 15 17 18 19 20 21 20 20 17 13 14 16 17 18 20
5 1 3 2 0 2 2 3 3 2 4 5 2 5 9 4 7 11 12 13 14 12 11 8 6 6 9 11 13 15 17 19 19 21 22 23 23 20 18 18 16 15 13 15
3 3 2 2 3 2 4 6 5 4 4 2 2 6 11 8 6 8 11 12 13 13 13 11 9 7 7 10 13 15 17 19 20 21 22 23 24 22 22 19 18 16 14 15
4 2 2 3 3 3 2 5 5 6 6 5 3 9 10 9 8 7 6 8 12 15 14 13 11 9 7 7 11 14 17 18 18 20 21 20 21 17 16 19 17 17 14 15
4 3 2 0 1 3 3 3 3 6 6 7 7 7 13 9 3 4 9 13 16 17 16 15 13 11 9 7 7 11 14 15 16 17 18 18 19 19 18 18 18 16 16 13
3 6 1 1 2 1 3 1 3 5 6 7 7 7 8 8 12 13 15 16 17 16 15 14 13 12 11 9 7 6 10 12 13 15 15 14 17 19 18 17 19 18 17 16
3 6 3 3 5 4 5 5 6 5 6 7 9 7 6 10 11 12 14 16 16 14 13 13 12 12 11 10 8 6 6 8 10 12 14 16 16 16 17 18 19 17 16 17
2 4 6 5 2 1 4 5 6 6 7 8 10 12 7 7 6 10 14 14 12 11 11 12 12 12 12 12 10 8 6 7 8 10 12 14 14 15 16 17 17 17 17 17
5 4 6 4 3 4 5 6 7 7 7 11 12 13 1 5 13 14 13 11 10 10 12 13 14 14 14 13 12 10 8 7 7 8 11 13 14 15 17 17 16 16 17 17
5 7 10 12 12 9 9 9 9 10 11 16 19 24 23 22 18 14 12 10 10 10 12 14 15 15 15 14 13 12 11 9 7 8 10 13 13 14 15 15 15 16 16 17
5 8 11 16 17 15 16 19 18 20 21 22 26 27 26 20 13 10 11 10 10 12 14 16 17 17 17 16 15 13 12 10 8 9 11 12 12 12 13 14 14 15 16 17
5 7 6 13 15 16 21 24 26 25 24 25 26 25 14 6 7 10 13 12 11 13 16 18 18 18 18 17 15 15 14 12 10 10 11 11 11 11 12 13 14 15 16 16
5 6 8 12 8 10 16 17 18 15 14 14 15 9 7 10 13 15 16 13 11 15 17 18 18 17 16 16 15 14 14 14 12 11 11 11 10 11 12 12 13 15 15 15
8 6 7 8 6 13 9 2 6 10 13 13 12 9 9 12 14 15 14 11 13 17 18 18 17 16 15 14 13 13 14 13 13 12 12 10 9 11 12 12 14 14 14 14
9 8 7 5 8 14 11 7 3 5 8 4 1 6 12 15 16 13 10 10 16 18 18 16 15 14 14 14 13 14 15 14 13 13 12 11 9 11 12 13 14 13 13 14
4 6 6 5 6 10 6 3 0 3 7 3 4 14 19 20 18 14 15 17 18 18 15 13 12 13 14 13 13 14 15 15 15 14 14 14 13 12 13 13 13 12 12 13
5 6 8 8 10 12 7 1 2 5 5 4 14 20 21 19 17 18 20 19 17 16 14 12 12 12 13 14 13 14 15 15 15 15 15 15 14 13 13 12 11 10 10 11
6 6 8 7 9 11 3 5 5 10 14 18 21 20 20 20 21 21 19 17 14 13 13 13 12 14 14 14 14 15 16 16 15 15 15 15 14 12 9 11 10 9 10 11
8 8 6 9 11 8 3 8 13 17 20 20 18 19 21 21 21 18 15 12 12 12 12 12 13 15 15 14 14 16 17 16 16 16 16 15 14 12 10 10 9 8 9 9
7 8 12 14 15 16 17 18 19 18 19 20 21 21 19 18 15 12 10 10 11 12 13 13 14 16 16 16 16 16 16 15 15 15 15 14 13 12 10 7 7 8 8 9
11 9 13 20 20 19 14 13 15 18 20 21 18 15 12 10 9 8 9 11 11 13 13 13 14 16 18 17 17 17 16 15 15 15 14 13 11 11 9 8 7 9 9 9
16 19 18 18 18 19 20 19 20 19 17 15 13 10 6 5 7 9 10 11 12 14 15 15 16 18 18 18 18 17 15 14 14 13 12 10 9 9 8 8 8 11 14 16
Wind_Direction
274 247 257 280 266 282 287 281 286 293 296 257 271 280 286 292 281 267 266 265 259 252 248 230 216 212 209 208 206 203 201 202 199 199 203 206 210 211 212 212 210 206 205 203
245 254 284 301 223 237 254 275 287 297 215 259 291 288 287 291 290 286 284 282 276 268 257 235 220 211 210 208 206 205 205 202 201 202 204 208 212 216 215 212 214 210 208 205
256 310 104 190 220 243 255 261 288 301 310 245 298 291 292 315 324 310 304 299 296 281 269 246 224 218 214 213 210 208 207 205 204 202 202 204 211 218 214 214 214 212 210 208
261 275 218 241 251 248 276 277 270 283 298 305 338 304 303 332 345 23 22 17 6 349 304 268 238 223 219 219 217 216 213 211 207 202 205 203 206 212 214 213 213 211 211 211
265 228 226 251 269 232 281 12 260 272 277 283 248 264 288 319 359 16 20 22 20 12 355 321 270 240 227 218 215 216 216 215 210 207 210 212 219 224 222 215 216 214 211 212
268 275 256 274 32 236 233 232 192 201 235 252 211 261 287 332 357 351 359 10 15 10 3 348 319 266 238 220 214 212 213 215 211 210 213 216 221 223 222 218 216 215 213 212
265 190 183 209 226 179 231 276 275 253 239 252 125 256 261 284 319 320 327 344 355 356 355 347 338 310 261 229 219 215 216 218 213 213 216 219 223 225 226 224 220 216 215 213
301 267 171 207 258 298 241 276 301 303 297 301 225 249 266 292 307 303 315 339 351 354 351 343 337 323 300 259 231 223 222 223 217 216 219 222 224 226 231 228 224 222 221 219
283 294 107 73 274 259 230 224 329 288 279 274 258 267 287 279 284 360 359 359 355 350 346 343 341 338 329 308 265 236 230 230 225 223 223 224 224 226 230 231 229 229 227 222
269 281 248 124 169 112 307 219 204 247 278 277 265 260 260 292 323 344 352 352 348 347 347 347 346 345 342 335 315 273 244 239 233 227 225 228 228 229 231 232 232 230 229 224
231 263 256 217 225 222 177 194 226 248 264 278 285 266 256 288 325 342 343 345 345 347 348 348 347 347 345 345 339 317 276 253 243 234 231 231 232 232 232 233 235 234 231 226
204 255 268 258 100 313 246 240 219 250 259 247 277 280 275 291 326 336 336 340 345 349 351 352 350 348 350 348 343 330 304 274 255 244 239 239 238 236 235 237 238 235 232 228
170 231 277 251 192 183 224 224 226 250 275 263 264 272 226 271 310 330 340 343 346 351 355 354 351 348 346 342 338 332 318 293 272 254 246 245 242 239 239 239 237 234 232 228
202 235 246 267 286 294 260 245 226 230 256 266 260 276 289 301 324 338 342 343 342 347 352 349 344 341 339 334 333 330 325 312 287 264 253 251 248 245 244 243 239 234 230 227
205 248 251 263 276 279 272 269 259 248 255 266 276 283 293 319 336 339 337 336 332 339 343 342 337 332 330 329 328 327 322 316 302 278 266 262 261 256 250 246 241 235 230 228
221 254 261 266 269 273 272 266 263 262 261 262 271 279 307 355 347 337 335 331 323 331 334 332 329 326 324 324 324 322 319 317 306 289 278 274 268 260 253 247 242 236 231 228
218 240 273 281 303 292 268 257 254 246 246 253 267 296 4 340 337 330 324 320 316 324 326 322 320 319 319 319 320 317 315 314 307 296 288 283 275 267 260 253 246 240 234 229
240 238 266 287 285 249 258 305 271 264 265 267 272 298 324 328 322 311 307 310 316 321 318 317 317 316 315 314 315 314 311 308 305 299 294 289 278 271 267 258 249 242 235 229
226 221 238 252 263 275 282 287 259 255 277 275 279 334 329 328 314 307 324 318 313 313 313 312 311 309 307 309 314 312 308 308 305 302 301 298 283 274 270 261 254 245 237 232
173 213 229 222 248 267 288 102 360 267 272 137 336 329 329 328 317 320 329 317 311 311 312 313 309 306 305 311 315 309 306 307 306 308 307 304 298 286 276 269 262 251 239 234
158 187 216 230 244 267 283 97 222 251 333 355 320 321 320 315 308 311 313 310 309 310 314 315 311 307 308 313 312 306 306 306 309 309 306 303 300 293 285 278 267 255 243 236
212 213 217 220 227 251 188 172 229 305 320 313 313 315 313 310 309 308 309 310 312 315 315 317 313 308 309 312 312 306 305 309 310 308 305 304 303 300 289 279 269 254 242 237
227 232 242 223 239 274 233 260 295 307 306 310 313 312 310 307 306 309 310 312 314 313 313 313 310 306 306 309 310 305 306 310 310 307 305 306 306 303 293 281 270 256 240 236
242 244 253 264 264 275 284 290 295 304 310 312 310 308 307 305 309 312 312 313 314 313 313 313 310 306 306 310 309 304 306 308 306 304 305 306 306 304 298 281 264 253 240 234
252 253 256 264 277 286 285 294 306 311 309 307 308 309 310 312 316 317 314 313 312 309 307 307 305 303 304 308 306 305 307 308 304 302 302 304 302 301 297 283 266 257 246 238
240 249 259 271 288 298 304 312 314 310 308 311 311 313 323 325 317 314 309 308 306 306 307 306 304 304 306 307 304 304 306 305 302 300 301 303 303 301 293 289 281 257 252 254